Theta_e
324 326 327 327 329 330 330 330 329 331 331 333 333 332 332 332 332 332 331 331 331 331 330 330 330 329 330 330 330 329 324 315 313 312 313 315 325 329 328 327 329 331 331 321 320 319 316 316 316 319 317 319 308 304 303 305 304 301 292 287 289 287 289 293 292 290 292 293 295 292 294 299 295 294 299 304 304 302 306 307 309 311 310 311 310 313 322 322
323 324 326 328 327 330 329 330 329 330 330 333 333 332 332 332 332 332 331 330 330 330 330 330 330 330 330 330 330 326 315 311 309 309 313 323 331 329 328 329 330 331 328 319 317 317 315 315 315 317 315 314 312 303 302 304 304 296 291 290 290 289 293 296 292 292 293 294 294 294 292 297 297 296 297 299 297 304 304 304 305 309 309 313 314 320 321 323
323 324 325 327 327 327 329 329 329 328 330 331 332 332 331 331 331 331 331 330 330 330 329 330 330 329 329 330 328 324 313 307 309 307 311 331 331 331 330 331 333 331 319 318 319 318 317 315 317 316 310 312 307 301 302 298 304 296 292 290 287 293 294 295 292 294 291 294 294 294 294 293 295 297 297 298 295 300 303 301 303 305 309 309 314 318 320 322
322 323 324 325 327 327 328 329 329 329 329 331 331 331 330 330 330 330 330 330 329 329 329 329 329 329 328 328 326 311 307 304 302 304 309 334 331 331 332 331 331 324 319 319 319 317 317 318 318 316 310 309 309 305 297 297 299 298 293 289 293 292 292 294 293 292 291 292 294 293 291 293 293 296 297 295 300 299 301 302 305 307 309 311 315 318 320 321
321 322 323 325 326 327 327 328 329 329 330 330 330 330 330 330 330 330 330 329 329 329 329 329 328 328 328 327 323 309 304 298 299 306 315 334 331 332 331 330 327 315 316 316 318 318 318 315 314 313 312 304 307 308 305 297 300 296 294 294 294 292 292 294 293 291 290 290 293 291 294 294 294 295 296 299 297 297 301 305 305 308 312 313 316 318 319 320
321 322 323 324 325 326 327 326 329 329 329 329 330 329 329 330 330 329 329 329 329 328 328 329 328 327 327 325 311 308 305 289 303 308 330 334 331 331 331 329 325 316 317 316 315 316 315 314 314 309 306 306 304 303 306 297 297 292 291 292 292 292 291 293 293 292 292 294 293 292 294 294 296 294 294 298 299 298 293 298 305 309 315 317 319 319 319 320
321 322 322 323 324 325 326 327 327 329 328 329 330 330 330 330 329 329 329 328 328 328 328 328 328 328 326 320 309 307 302 301 305 312 330 333 333 331 330 329 325 315 315 312 314 313 313 312 312 308 306 305 304 305 304 299 296 293 292 291 291 291 292 293 293 292 289 293 294 293 294 295 294 295 293 297 299 294 294 292 303 311 315 317 317 318 319 320
320 321 322 322 323 324 326 326 327 328 328 329 329 329 330 329 329 329 328 328 328 328 328 328 327 327 322 310 306 301 300 299 306 313 332 332 328 327 325 316 315 314 314 312 312 311 312 309 308 308 306 304 305 305 305 302 297 293 293 292 291 291 292 292 291 290 290 290 292 293 294 294 294 294 292 296 299 296 298 308 311 314 315 316 318 318 319 319
320 320 321 321 322 323 324 326 326 327 328 328 328 329 329 329 328 328 328 328 328 328 328 327 327 325 321 310 303 299 299 305 310 322 328 323 318 315 313 312 312 314 311 312 314 313 313 309 309 310 304 305 305 306 302 304 301 293 293 293 291 292 293 291 292 292 291 292 292 294 292 292 292 293 293 296 296 295 305 310 312 314 314 315 317 318 318 319
320 320 321 321 321 322 324 324 326 327 328 328 329 329 329 328 328 328 328 328 328 327 327 327 327 324 314 307 302 297 304 309 313 324 320 317 313 311 311 311 311 311 310 308 311 312 311 309 311 311 310 305 306 305 303 304 304 295 295 296 294 293 292 292 293 290 290 292 292 295 292 293 292 293 295 293 293 303 309 311 311 313 314 315 316 317 318 319
319 320 320 321 321 321 323 324 325 326 327 328 329 328 328 328 328 328 328 328 327 327 327 327 326 320 310 307 301 297 308 314 315 322 317 313 310 310 307 309 311 312 311 308 310 314 313 313 311 312 311 307 306 301 301 305 303 300 298 301 302 297 295 291 290 291 293 294 289 293 293 291 292 293 296 294 296 302 305 311 313 312 312 314 315 316 317 318
319 320 320 321 321 321 322 324 325 326 327 327 327 327 328 327 327 327 327 327 327 327 327 327 326 317 308 306 302 301 309 313 319 321 314 311 309 309 308 309 311 312 311 308 310 311 314 313 313 312 306 309 302 303 302 303 300 298 298 301 298 297 297 293 292 292 292 293 291 291 293 291 291 292 297 291 297 299 304 309 313 312 311 313 314 315 316 318
318 319 319 320 320 321 322 323 325 325 326 326 327 326 327 327 327 327 326 326 327 327 326 327 324 316 309 301 303 309 309 311 320 318 312 311 309 308 307 307 308 311 314 312 311 310 314 313 314 308 309 306 305 303 306 302 297 297 295 294 297 295 295 295 292 291 292 294 290 293 286 285 291 295 293 291 300 300 301 305 311 312 311 312 313 314 315 315
317 318 319 319 320 320 321 323 324 325 326 326 326 326 326 326 326 327 327 326 327 326 326 327 321 314 308 300 306 309 311 316 321 314 310 313 309 307 306 307 307 307 311 311 310 310 312 312 313 308 309 305 302 308 302 301 297 296 296 292 292 290 290 292 292 292 292 292 290 292 287 286 290 294 293 294 300 300 300 304 308 309 309 311 312 313 314 315
317 317 318 318 319 320 320 322 323 325 325 325 325 325 326 326 326 327 327 326 326 326 326 326 318 312 304 304 310 313 323 324 319 314 313 311 307 304 303 306 305 306 308 310 309 310 310 309 308 304 300 302 303 301 296 295 296 294 295 292 288 288 290 291 293 291 291 292 290 292 286 290 294 294 290 289 299 297 298 300 305 307 309 310 311 313 315 316
316 317 317 318 319 319 320 320 322 324 325 325 325 324 325 325 326 326 327 325 326 326 326 318 315 312 304 302 307 324 320 316 316 317 312 311 308 304 303 304 304 305 307 305 309 309 307 309 303 301 300 303 298 295 294 292 293 292 293 287 287 284 287 288 292 290 291 291 293 291 287 285 290 291 287 287 298 299 297 297 301 306 308 309 311 312 314 315
315 316 317 317 318 319 319 320 321 322 324 324 324 324 324 325 326 327 326 326 325 325 321 313 315 314 300 309 318 313 311 314 317 312 310 312 308 305 304 303 301 302 305 306 307 307 307 304 299 301 303 298 297 297 292 290 287 289 287 288 287 286 286 286 289 291 291 291 289 291 288 287 289 289 287 290 295 296 297 297 298 303 307 309 310 311 312 312
315 316 316 317 318 318 319 320 321 322 323 323 323 323 324 325 327 326 324 323 323 321 317 317 315 308 305 307 302 307 312 310 315 312 307 307 307 305 304 299 299 302 303 301 306 301 301 298 301 296 297 297 296 296 293 288 290 288 286 286 288 285 286 288 289 291 291 290 288 288 287 290 294 294 291 289 291 296 297 298 296 299 303 306 308 309 310 312
315 315 316 317 317 318 318 319 321 321 322 324 324 325 326 326 325 322 317 316 311 305 303 304 305 295 294 303 309 310 312 314 313 310 305 305 305 304 303 304 302 300 297 297 296 298 299 298 299 294 292 293 294 296 296 292 293 292 289 290 288 287 288 286 290 289 292 289 288 287 288 291 293 294 294 289 289 293 295 293 291 292 298 302 305 306 308 310
315 315 316 316 317 318 318 319 321 322 323 322 321 321 318 312 310 308 312 313 308 307 309 309 310 307 303 307 307 310 313 314 307 307 305 305 305 304 303 303 302 300 296 293 295 295 298 293 291 291 294 294 296 297 294 294 296 293 290 288 287 287 287 287 288 290 290 290 288 287 287 290 293 294 294 290 288 289 289 291 293 293 294 297 301 303 305 307
315 315 316 316 316 317 318 319 321 321 322 321 320 315 306 307 301 297 304 309 312 307 308 310 310 305 305 307 308 309 305 305 308 303 305 307 305 304 299 301 298 294 295 296 294 296 297 291 291 294 295 296 296 296 293 293 293 292 288 286 286 286 284 287 289 290 290 290 286 285 286 288 290 293 293 287 288 289 290 291 292 293 293 294 296 299 300 303
315 316 316 316 316 317 318 319 321 321 322 321 318 312 313 314 315 314 312 301 308 305 308 308 307 305 308 310 312 313 310 302 301 302 305 304 303 301 297 298 296 292 295 296 295 293 291 290 292 295 295 296 296 296 293 292 290 289 288 286 285 285 286 288 287 288 289 289 288 286 286 287 290 293 294 289 290 290 291 292 293 293 293 292 292 294 297 298
316 316 316 316 316 317 318 319 320 321 320 317 313 314 314 316 315 318 316 307 303 304 306 304 304 303 305 308 311 312 304 301 299 300 301 302 301 301 298 296 294 293 294 295 291 290 287 290 293 294 295 294 292 295 294 293 291 288 286 284 285 286 285 286 289 288 289 288 286 285 284 287 290 291 291 291 289 290 291 291 293 293 293 293 294 294 295 295
317 317 316 316 316 317 319 319 321 318 316 315 316 316 314 315 318 318 311 300 296 303 307 305 305 305 304 305 310 308 304 301 302 298 303 302 300 299 298 297 294 294 292 294 294 292 290 292 295 294 294 294 292 292 293 291 289 289 288 285 285 286 286 286 286 288 288 287 287 286 285 287 289 290 291 290 288 289 291 289 290 291 292 295 295 294 294 295
317 316 316 316 316 317 318 319 313 312 317 316 316 318 314 318 319 317 305 300 299 298 306 303 303 304 308 305 305 306 299 300 300 303 301 303 298 298 296 297 295 292 293 295 294 293 291 293 295 293 292 293 292 290 291 292 290 289 289 288 286 286 286 286 287 287 285 283 286 287 279 280 283 286 289 292 287 287 288 289 291 291 291 292 292 294 295 295
317 316 316 316 316 317 319 310 309 316 314 310 315 315 317 319 319 315 307 293 287 294 301 294 308 300 311 303 304 302 304 295 298 302 302 302 305 300 296 293 294 290 292 292 292 292 293 292 293 292 291 290 291 290 290 293 290 288 289 290 289 289 289 289 287 286 280 281 286 286 283 280 282 286 288 288 287 289 288 288 291 291 291 290 292 294 295 295
317 316 316 316 316 317 309 302 315 316 307 311 316 317 318 318 315 312 300 286 284 295 292 302 303 302 307 306 305 306 292 292 298 299 300 302 301 299 297 291 290 291 293 292 290 288 290 290 291 291 290 289 289 288 290 293 290 287 290 290 290 289 290 289 289 287 284 284 286 285 285 279 280 287 289 284 283 286 287 288 289 290 291 291 292 293 294 295
316 316 315 316 316 316 310 313 313 309 309 315 317 317 316 314 314 311 298 279 278 300 293 296 301 309 306 304 305 301 297 300 294 297 300 299 301 297 296 291 294 291 293 293 285 289 291 288 290 288 288 288 288 289 291 293 291 290 290 291 290 291 290 289 289 286 284 283 281 284 284 280 278 282 283 284 287 288 288 288 288 291 292 292 293 294 294 295
316 315 315 316 316 318 317 312 312 309 316 317 316 316 314 314 312 301 288 279 293 292 310 296 309 304 301 302 297 297 297 302 296 298 300 300 299 296 291 291 292 293 294 294 289 285 287 291 291 292 290 288 288 290 292 293 290 291 292 292 291 290 289 289 286 286 284 282 280 283 283 279 281 279 283 282 283 286 288 288 289 290 292 293 294 294 295 295
315 315 315 316 316 315 314 315 312 315 317 317 317 315 314 312 303 291 282 276 295 284 298 297 298 293 299 295 293 296 296 292 294 297 298 296 297 293 290 294 294 293 291 290 286 284 287 290 294 291 290 290 290 290 292 293 292 292 291 290 290 288 286 285 284 284 284 277 282 284 282 282 278 281 286 286 286 286 287 288 288 289 290 291 292 293 295 295
315 315 315 316 310 312 312 307 312 317 315 317 316 312 310 304 292 285 280 285 294 290 296 294 292 300 295 292 288 296 293 292 294 296 292 296 291 290 293 292 291 288 286 287 285 284 284 287 289 288 290 288 291 288 291 293 291 293 290 287 289 286 287 285 284 284 279 279 281 280 281 281 278 279 282 286 284 282 290 290 291 292 292 293 291 290 291 291
315 315 315 313 314 317 308 306 315 316 316 315 313 307 303 287 287 284 278 298 284 288 288 290 295 295 295 296 293 292 289 292 295 295 293 292 289 288 290 287 289 281 280 283 283 284 283 284 285 287 290 292 287 289 288 291 291 291 289 288 284 280 282 278 281 278 279 278 279 277 280 280 280 284 285 285 285 285 283 286 289 290 290 290 290 289 289 289
315 315 315 314 315 313 312 316 318 316 314 313 309 305 295 286 278 286 285 288 281 293 288 296 292 294 294 292 289 290 292 289 293 294 296 292 288 287 289 288 291 286 281 283 281 283 281 281 284 286 288 290 291 286 282 285 289 289 287 285 283 278 277 276 278 274 276 280 280 280 281 280 284 281 287 290 294 293 291 288 287 288 289 290 291 290 289 290
315 315 312 313 314 315 314 315 315 315 312 310 305 298 291 283 281 289 285 286 288 293 295 293 294 295 294 289 289 292 288 290 293 292 294 289 289 285 287 286 290 282 282 284 283 282 275 277 283 285 282 287 290 290 289 287 289 289 290 288 285 282 277 275 277 277 278 280 279 280 279 279 279 284 284 287 289 288 286 286 287 287 287 288 288 288 289 290
315 314 313 313 314 315 314 314 315 314 311 307 299 293 284 282 286 283 284 285 290 293 291 296 292 291 289 289 288 291 288 286 292 291 290 288 285 286 286 287 288 286 284 283 282 279 281 279 282 286 286 288 288 288 290 288 288 290 290 291 283 284 283 278 275 277 274 276 276 276 281 281 284 284 286 284 285 286 287 288 286 288 288 287 289 291 292 293
313 311 313 310 311 313 313 315 315 313 309 302 294 287 286 288 280 289 286 292 292 289 290 293 292 289 287 286 288 288 290 290 289 290 288 289 289 287 288 286 286 288 287 284 283 279 280 279 283 286 285 288 289 289 288 291 281 286 287 284 286 287 285 278 277 277 276 273 275 276 279 283 283 286 291 283 282 287 286 286 286 287 288 287 290 292 293 293
309 311 307 310 312 312 314 315 314 312 307 300 291 286 291 288 292 291 294 291 292 293 291 284 286 287 284 284 286 288 288 291 289 289 285 289 286 288 288 288 290 288 291 286 281 281 282 278 283 283 284 286 284 286 288 288 287 286 283 286 287 288 287 284 278 274 274 272 274 275 280 279 279 281 283 283 284 286 287 288 287 286 286 287 291 292 293 294
309 308 308 310 311 313 315 315 313 310 304 297 289 291 287 287 292 293 295 295 294 294 290 288 288 292 286 286 285 287 288 288 286 289 286 289 285 293 289 288 288 290 289 287 286 282 285 277 283 283 283 286 285 287 287 288 287 289 286 290 288 281 281 281 280 276 272 270 272 272 276 276 281 283 283 284 284 285 289 289 287 289 287 288 290 291 291 290
308 306 299 308 312 314 314 315 311 305 300 291 289 290 287 289 294 294 296 295 296 294 290 291 288 290 290 287 288 289 289 286 287 287 285 286 283 289 290 291 285 288 288 287 285 282 283 274 278 283 284 285 285 285 281 284 286 287 287 286 286 284 281 278 280 275 277 275 269 274 271 280 282 281 282 288 290 289 288 287 289 288 289 289 290 291 291 291
304 301 299 310 312 314 314 312 306 301 295 288 291 290 291 290 292 295 297 296 292 293 290 291 293 289 290 289 290 286 288 288 287 287 288 287 286 287 290 291 287 287 289 288 288 286 283 280 273 281 284 284 281 283 282 284 281 283 283 282 285 284 285 284 282 280 278 270 269 270 273 279 281 284 286 288 289 292 294 289 287 288 290 290 290 290 290 290
307 300 298 309 312 313 312 306 299 292 291 293 295 289 290 290 292 294 296 298 296 294 293 293 292 289 290 289 288 290 287 286 288 287 286 285 288 282 289 291 288 286 286 288 286 285 280 281 277 280 282 280 280 281 283 286 288 286 285 284 286 283 282 279 278 279 276 278 273 268 276 282 283 282 287 288 289 290 287 285 287 289 289 290 290 290 289 290
299 290 295 309 312 312 304 293 294 297 292 290 288 290 289 297 292 293 294 296 296 292 294 294 291 290 291 290 291 289 288 286 288 287 283 284 288 282 286 290 291 290 290 286 286 283 283 280 280 274 279 283 283 285 282 284 285 284 286 285 286 286 283 278 275 274 275 278 273 272 270 281 287 285 285 287 287 286 285 285 287 288 289 290 290 289 288 288
296 293 305 310 312 309 301 293 295 292 289 292 295 293 295 293 291 294 293 294 292 288 292 292 291 290 290 291 290 289 289 285 287 286 283 284 286 284 287 291 291 291 291 284 288 286 289 279 277 273 276 279 281 282 283 283 286 285 284 282 283 284 284 283 280 276 279 275 276 275 274 281 288 285 286 286 284 281 281 282 285 287 289 289 289 289 288 287
295 296 299 308 311 308 298 287 286 289 289 290 291 290 292 291 292 291 291 293 292 290 292 292 292 294 291 292 292 288 291 283 285 284 283 284 287 286 289 291 293 291 291 288 289 290 282 279 281 270 271 274 278 283 283 283 283 281 280 283 282 283 283 282 281 281 279 279 278 276 276 278 285 283 283 283 283 284 284 283 284 286 288 289 288 288 288 288
297 300 301 302 309 305 295 295 291 288 287 288 288 286 288 289 293 294 294 292 293 293 292 290 293 293 289 292 291 291 292 288 284 284 283 284 285 285 290 291 294 292 293 292 295 293 286 282 283 276 274 272 269 271 277 280 281 281 279 284 284 287 283 282 279 280 279 282 282 279 281 282 285 283 283 282 282 286 285 284 283 285 286 287 287 287 287 287
294 286 294 297 302 302 300 297 295 290 289 289 286 287 289 287 292 295 295 292 288 291 288 289 289 292 290 290 288 288 289 288 289 284 286 285 283 284 288 291 293 293 293 295 294 293 283 283 286 285 282 280 282 281 283 284 282 282 282 284 284 285 285 286 283 278 280 280 280 284 285 282 283 284 283 285 283 285 289 286 286 286 286 286 285 286 287 289
297 290 291 288 296 298 296 295 293 293 289 292 286 288 286 289 290 291 295 290 289 290 288 291 290 289 288 290 288 288 290 285 285 287 286 286 284 285 286 290 292 292 294 293 294 290 282 283 285 286 285 285 283 281 283 288 284 285 283 283 284 284 284 283 282 282 281 278 279 285 285 284 286 286 287 289 291 289 288 286 285 285 287 288 286 286 289 289
289 291 295 296 289 287 290 290 293 292 294 294 288 291 288 287 288 287 290 289 290 292 290 288 291 292 291 290 290 286 287 285 285 286 286 283 283 283 286 287 289 291 293 290 293 291 287 284 285 284 284 281 280 283 285 286 286 284 285 284 283 284 283 282 284 286 283 283 282 283 283 285 285 287 289 290 291 291 292 293 289 287 286 285 285 287 288 291
293 293 293 295 289 294 294 293 294 293 293 292 287 289 287 288 287 290 291 287 290 289 293 286 289 291 291 293 291 288 288 283 282 286 285 284 285 284 283 284 287 285 288 288 289 284 287 282 282 285 283 282 281 282 284 285 283 283 284 285 286 285 284 285 286 287 286 285 287 287 285 284 285 286 289 292 292 291 288 286 286 287 290 288 286 287 289 290
290 290 288 293 292 295 294 293 292 293 290 291 287 287 288 288 288 290 290 289 287 289 293 290 290 291 292 292 292 289 289 291 290 284 286 286 283 286 285 285 282 281 283 285 287 285 286 278 285 281 279 279 281 281 282 282 283 282 283 284 285 286 286 286 286 286 286 286 287 286 285 286 288 287 288 288 286 285 287 288 290 291 290 289 288 288 290 291
293 293 298 291 286 291 294 293 292 292 289 289 288 288 289 289 289 291 289 290 291 289 291 290 291 291 292 292 292 292 293 292 291 289 289 289 285 288 287 280 286 285 283 285 285 285 286 276 278 278 278 274 278 280 279 278 280 280 281 283 284 284 282 284 283 285 284 285 286 284 283 285 285 288 287 288 287 288 291 292 292 292 292 288 286 287 288 290
292 293 297 295 288 293 292 294 294 293 288 291 290 288 289 289 291 292 287 287 288 290 292 292 292 291 289 290 290 293 294 292 292 292 293 294 294 292 292 291 291 288 287 287 286 286 284 280 278 277 278 274 274 276 279 279 279 278 281 284 285 284 286 286 287 288 288 289 285 283 285 286 286 286 287 288 289 290 289 290 291 291 290 288 289 290 290 290
Wind_Speed
15 14 15 16 17 17 16 19 21 21 24 22 21 21 19 19 19 19 19 19 16 18 16 15 13 12 13 13 12 10 7 5 3 2 5 2 2 6 8 7 9 8 6 6 4 3 3 5 8 6 7 5 5 3 5 2 2 1 1 4 1 2 3 4 4 7 1 0 2 4 5 6 3 1 1 2 4 2 0 1 5 1 1 2 3 1 6 11
16 14 14 15 17 16 16 16 16 20 23 22 23 23 23 22 21 19 19 19 17 18 16 14 13 13 13 13 12 7 7 4 4 2 7 2 7 10 8 8 9 9 6 5 7 4 7 3 6 8 7 3 2 1 6 1 2 3 1 2 5 4 4 4 2 3 0 3 0 2 3 5 6 8 3 3 1 1 1 4 1 2 3 4 2 7 10 12
16 15 14 14 15 17 17 16 17 21 22 23 21 23 23 22 22 21 20 18 18 17 16 15 13 13 12 12 10 7 7 3 1 4 4 5 9 8 8 7 5 4 1 7 4 8 8 10 6 8 4 3 5 2 6 4 2 1 2 1 2 5 4 4 2 1 4 0 2 2 1 1 2 5 1 3 4 1 7 5 2 4 5 1 4 6 10 12
17 16 15 14 14 16 17 16 18 20 23 24 23 24 22 22 21 21 20 19 18 18 16 14 13 12 11 11 9 5 8 4 3 3 2 10 10 9 8 7 7 6 9 7 6 7 9 10 9 9 3 4 1 1 3 3 1 1 1 2 1 2 1 0 2 4 4 2 2 2 1 3 2 4 5 4 5 6 6 6 10 12 9 8 8 9 10 12
17 17 16 14 13 14 16 17 17 19 21 24 24 24 22 22 22 22 21 20 19 18 16 14 14 13 12 10 7 6 7 3 6 5 5 14 11 10 9 9 8 4 10 9 13 10 9 10 7 3 3 2 3 2 2 2 0 2 3 2 0 0 1 4 3 1 2 3 1 1 4 6 1 0 4 10 9 10 11 12 10 7 9 12 12 11 9 12
16 16 17 14 14 15 15 18 18 17 20 24 24 25 24 23 23 22 23 22 20 19 17 15 14 13 11 9 6 5 9 7 1 1 11 17 14 11 10 10 9 11 13 10 9 9 12 4 10 4 2 3 6 6 2 3 1 2 1 1 0 1 1 3 4 2 0 1 2 1 4 3 6 2 3 7 12 2 2 2 9 5 10 12 13 13 12 13
15 16 17 15 13 14 15 17 19 19 19 22 24 24 24 24 24 24 22 21 20 20 19 16 14 13 11 8 3 5 9 3 0 4 8 18 16 13 11 10 10 8 11 11 12 7 6 9 4 5 6 4 1 5 4 4 1 1 2 1 1 1 3 4 5 3 3 5 5 4 1 4 4 7 1 6 7 0 3 3 5 6 6 6 12 13 17 17
16 15 15 15 13 13 14 15 17 18 19 22 24 24 25 25 24 23 23 22 20 19 18 17 15 13 12 5 5 4 4 6 3 4 12 9 14 14 13 7 10 6 11 14 11 10 10 9 6 3 2 7 4 9 4 4 1 2 1 1 4 2 2 5 4 4 3 6 3 1 3 5 7 4 2 9 10 2 4 3 4 8 8 7 11 14 12 13
16 16 15 15 14 14 13 15 16 18 18 23 23 24 25 25 24 25 25 22 21 20 19 17 16 14 10 4 3 5 10 2 3 7 11 9 8 10 12 5 3 10 5 9 9 12 11 6 5 5 5 4 3 7 0 6 6 3 2 1 3 3 5 4 5 2 1 2 2 3 5 3 2 2 3 11 3 3 3 4 4 7 9 11 12 13 13 13
16 16 15 16 15 14 14 14 16 17 18 21 25 26 25 24 24 23 24 23 22 20 20 19 16 16 7 5 5 9 3 1 1 7 9 10 10 10 5 10 5 8 8 4 4 9 7 5 10 3 7 5 4 3 2 3 3 1 1 2 6 4 5 2 2 3 2 1 3 5 3 1 1 3 8 1 2 5 5 5 3 6 11 11 10 10 10 12
17 17 17 16 16 15 15 15 16 16 18 20 25 25 25 25 25 24 24 24 23 22 19 18 18 12 6 6 11 12 1 4 3 6 10 10 10 10 5 8 6 6 10 2 6 8 4 9 8 4 1 3 4 0 4 3 2 1 2 4 7 9 5 2 2 5 0 3 4 4 2 1 2 1 12 2 1 2 8 5 6 5 6 9 9 10 9 10
18 19 19 18 17 16 17 17 16 17 19 19 21 24 26 25 25 24 23 21 19 19 21 20 19 7 3 7 9 7 1 2 4 6 9 11 8 6 7 8 6 8 9 8 5 1 7 9 10 7 5 7 4 3 5 4 2 1 1 5 6 9 9 3 4 1 3 2 5 4 1 1 1 7 11 3 2 2 5 6 7 8 6 7 7 7 8 10
20 20 20 19 18 17 17 18 17 17 18 19 20 23 28 26 26 25 23 22 22 21 21 21 14 5 7 9 7 1 2 2 4 9 7 4 5 6 3 3 4 5 9 14 9 5 5 10 8 7 3 6 7 3 1 4 2 0 3 3 6 5 7 5 1 0 4 2 5 1 5 5 9 14 3 1 6 5 5 4 6 7 7 6 6 7 8 5
21 20 20 21 20 19 18 18 18 18 18 18 17 27 24 26 24 25 25 22 23 21 17 20 9 6 8 4 2 2 2 2 7 11 9 6 11 2 4 4 5 4 3 4 5 4 5 2 6 7 1 5 4 2 4 2 2 3 1 1 3 1 7 1 1 0 3 2 4 1 4 6 6 12 2 3 5 9 8 7 7 8 7 6 7 7 8 8
21 22 22 21 21 20 20 19 20 19 19 18 18 19 27 28 27 25 25 22 23 21 20 14 5 8 8 2 2 4 4 6 10 10 9 11 11 6 3 5 6 5 4 6 5 4 5 6 9 5 2 0 3 3 2 1 2 1 2 6 1 6 4 6 3 4 5 0 2 4 5 8 9 9 3 4 5 6 7 7 8 7 8 8 7 9 8 10
23 23 24 24 23 22 21 20 19 20 20 19 20 20 24 33 30 27 27 22 26 25 13 11 8 6 5 7 2 6 4 9 12 9 3 9 10 8 5 7 6 6 7 3 3 5 2 4 3 3 3 2 3 5 3 2 0 2 5 0 6 1 4 5 3 4 6 1 0 6 6 3 6 5 1 1 6 7 7 6 7 8 8 8 8 8 9 8
25 25 25 26 25 24 23 21 20 20 20 20 20 18 22 29 31 29 25 26 18 13 13 10 11 6 8 1 2 10 6 2 6 4 4 2 10 10 10 8 4 6 7 5 4 7 1 3 1 2 2 4 2 4 3 4 2 2 2 2 2 4 1 4 4 2 3 4 4 2 4 6 4 3 1 1 4 4 6 9 8 8 7 8 7 7 9 9
26 27 27 27 27 26 25 23 22 21 20 21 21 16 17 23 30 29 21 17 8 7 5 6 6 6 5 1 12 11 5 6 10 7 4 1 12 10 6 3 4 11 9 7 0 4 1 3 1 3 2 3 5 5 9 7 7 5 3 3 6 3 4 4 2 1 3 0 4 2 6 9 12 9 6 1 4 6 9 7 3 5 6 7 8 8 9 9
26 28 29 29 29 28 26 25 23 22 21 21 24 23 22 25 19 16 17 14 14 7 11 10 10 13 6 20 5 10 8 10 9 12 7 10 4 5 4 4 10 13 7 5 2 4 1 4 3 3 8 5 8 9 10 5 6 8 7 8 3 6 8 5 4 3 3 3 5 5 7 8 13 14 10 2 4 7 9 4 5 5 6 6 7 8 8 9
28 28 30 31 31 29 29 27 25 23 24 18 19 15 12 12 11 10 12 20 18 15 4 21 19 2 8 12 8 6 9 13 12 4 7 5 10 11 6 7 5 3 10 8 5 4 4 7 8 9 7 9 8 8 3 5 6 6 5 4 7 4 4 3 3 2 1 1 5 6 5 8 12 12 11 3 3 3 4 6 9 8 7 8 8 9 10 11
30 31 32 33 33 31 29 29 26 25 28 19 19 17 14 23 19 12 15 18 17 5 4 15 12 3 1 5 10 21 15 4 4 9 12 7 9 15 8 10 7 6 2 5 8 0 3 7 8 5 6 9 8 4 4 3 5 9 6 4 5 1 3 2 2 2 4 3 3 1 2 9 13 12 8 2 4 6 8 9 10 11 10 8 7 9 11 14
38 35 36 36 36 33 31 29 28 27 28 18 20 17 5 19 5 14 20 16 16 4 5 11 10 6 1 12 16 14 11 8 9 7 3 7 12 12 6 8 11 11 4 6 6 5 6 9 5 6 6 8 7 5 4 8 5 4 7 3 1 3 2 6 3 3 2 2 7 4 4 8 11 13 12 5 6 6 7 9 9 10 9 8 8 10 12 7
42 38 39 38 38 35 33 30 28 28 18 17 18 20 14 3 6 3 6 11 12 2 5 13 14 9 9 1 5 9 14 15 16 14 12 5 13 7 14 11 10 9 6 9 10 6 4 7 6 5 8 9 5 7 5 3 5 6 5 5 7 1 2 5 0 3 1 2 2 0 2 7 9 9 13 8 8 8 8 8 11 8 9 10 14 14 10 8
41 38 40 40 38 36 33 30 27 21 20 22 19 21 10 11 10 13 17 7 9 6 4 2 5 9 13 15 7 8 16 5 14 17 8 10 13 7 8 10 14 10 11 11 10 11 4 1 7 8 9 11 9 6 8 5 6 0 4 3 4 1 1 0 3 5 3 2 1 2 6 7 7 11 10 5 5 6 8 5 7 7 8 10 6 4 8 13
35 38 41 41 40 36 32 27 19 19 20 20 22 11 13 14 12 17 16 6 1 3 2 3 1 3 7 5 1 8 1 4 1 11 9 12 12 11 6 3 6 6 8 8 5 5 2 2 4 9 7 8 10 9 12 9 7 4 2 4 5 3 2 5 5 7 7 5 2 1 4 8 4 7 11 9 1 4 6 7 11 11 10 7 8 12 10 10
33 38 41 42 40 37 32 20 18 18 22 23 9 13 16 15 13 5 15 4 9 4 6 13 3 9 4 3 3 4 9 4 1 5 9 6 2 9 6 4 2 11 10 6 5 2 3 0 4 9 8 6 8 8 6 8 7 6 5 9 5 3 1 4 6 5 4 2 1 2 5 7 3 6 4 5 6 10 5 5 11 10 8 6 10 11 11 12
35 38 41 42 41 38 24 14 17 19 19 17 11 16 19 18 9 5 11 1 8 8 11 4 8 4 4 11 9 13 13 10 2 4 4 3 10 2 16 7 5 3 3 2 1 5 3 4 3 3 5 8 7 10 6 11 7 4 3 10 7 3 2 2 2 2 4 2 7 2 3 5 7 11 5 2 4 9 9 8 9 10 8 10 10 12 12 13
37 39 41 42 40 39 16 13 20 22 22 12 12 13 17 17 10 3 3 6 7 12 9 5 2 2 4 5 12 9 2 22 11 9 2 3 5 2 5 14 12 14 9 8 10 2 10 8 10 9 5 7 10 3 7 8 6 2 3 10 10 8 2 2 2 1 2 3 8 2 0 2 6 6 2 0 6 9 11 9 8 10 11 11 12 14 14 15
39 40 41 40 39 40 22 19 19 23 21 17 17 15 16 18 17 11 4 5 1 5 3 12 3 6 7 6 6 1 14 9 10 10 1 4 5 5 5 6 7 10 7 7 9 1 2 10 12 12 9 9 3 6 8 10 6 1 5 7 5 6 3 1 1 3 3 1 12 6 2 3 11 3 3 1 3 9 8 9 9 10 12 12 13 13 13 11
40 40 41 41 32 27 19 12 18 21 13 20 19 14 16 18 12 14 10 9 5 7 6 4 7 13 13 13 5 5 17 1 3 7 4 5 1 5 2 5 9 10 8 0 2 5 1 4 4 5 9 5 7 5 9 9 3 3 6 6 2 4 3 3 3 1 3 5 11 4 5 3 9 5 9 8 8 6 7 7 6 6 8 9 10 12 11 10
41 41 41 42 26 21 18 18 16 16 17 18 24 16 16 13 14 14 16 3 5 2 6 10 10 16 20 18 11 7 8 7 11 16 7 3 3 4 8 8 3 6 3 2 1 3 3 2 4 3 3 3 4 3 1 6 7 8 2 3 5 1 2 4 2 2 1 12 1 4 3 6 10 4 6 7 3 3 8 9 11 10 11 12 7 7 8 7
40 41 43 33 21 20 26 22 18 18 18 21 28 17 17 14 0 18 8 5 13 11 16 12 14 16 18 14 14 15 14 9 15 17 18 13 13 13 14 13 12 8 5 9 7 1 1 4 2 2 3 11 4 7 0 4 3 5 5 5 9 2 3 3 1 4 11 8 0 3 4 1 18 8 7 5 7 6 5 8 10 9 9 9 7 7 6 5
40 39 43 31 26 18 20 16 19 21 21 23 24 17 15 12 14 5 8 9 1 12 7 18 24 24 22 17 12 9 7 16 11 13 15 8 10 3 1 5 9 5 11 7 6 5 5 1 1 2 4 3 10 10 5 5 8 9 10 8 8 6 5 7 6 2 5 4 2 3 1 7 6 4 14 13 13 14 10 9 10 9 10 11 9 5 6 7
40 39 30 26 22 20 17 14 18 24 27 19 18 20 11 10 9 6 12 2 12 4 17 15 20 15 21 15 16 15 8 3 16 10 13 12 12 12 7 5 13 4 6 10 11 9 5 2 6 5 1 2 6 7 9 4 12 11 3 5 5 4 5 6 5 11 8 6 1 3 2 9 3 3 1 8 6 8 5 6 7 7 9 10 8 8 9 11
40 35 26 22 19 21 18 20 23 30 21 19 14 21 25 12 5 13 10 5 6 14 11 13 19 20 9 9 7 8 1 8 8 14 10 15 12 12 17 14 11 7 5 12 5 3 7 1 3 2 1 7 9 4 6 6 5 4 5 1 3 11 5 6 3 1 3 2 2 3 8 2 5 4 8 5 7 7 7 8 5 10 8 4 8 10 10 9
33 22 23 18 19 15 18 17 24 28 22 19 14 13 19 11 9 8 9 9 13 14 15 17 16 16 9 10 8 4 3 10 12 9 7 13 13 13 7 4 9 12 13 11 5 5 3 5 0 2 4 9 12 7 4 8 7 5 6 11 8 2 4 3 1 0 1 3 9 3 8 8 6 7 11 3 2 7 4 6 6 9 8 3 8 9 9 11
23 22 20 22 19 18 19 20 20 20 19 18 14 13 7 2 8 13 11 20 19 26 23 21 10 12 11 11 10 8 7 8 15 11 10 8 4 8 12 10 13 9 10 10 2 2 11 3 1 3 4 0 1 2 5 4 4 7 9 8 3 1 2 2 3 1 1 5 7 3 11 5 2 12 2 3 6 8 6 6 6 5 5 6 9 9 9 9
21 20 18 21 19 20 20 24 24 16 19 18 18 12 3 7 2 10 12 20 21 21 19 14 7 14 15 18 15 18 13 19 17 12 13 16 6 15 12 8 7 13 9 1 7 3 6 4 1 1 2 1 2 4 1 1 1 8 7 5 9 6 6 1 1 6 3 4 6 3 2 6 10 10 3 4 1 7 11 8 6 9 5 5 8 10 8 6
20 21 15 21 20 22 21 24 21 18 17 21 16 15 2 3 9 12 19 19 20 18 18 11 16 8 13 15 17 18 22 16 20 13 14 9 7 12 22 12 6 8 8 5 5 2 1 5 2 1 3 1 2 3 10 6 2 1 2 3 1 3 0 4 7 2 4 6 1 7 4 12 6 7 5 9 12 10 8 8 9 7 7 6 6 7 9 9
21 15 9 19 21 22 22 23 17 17 14 22 20 8 4 7 7 15 19 30 13 18 9 17 16 19 16 14 19 16 11 8 20 11 10 6 5 3 15 7 11 12 13 5 3 4 2 1 5 1 1 4 3 3 8 9 7 3 3 5 3 1 1 3 1 4 3 3 3 2 7 7 4 8 11 11 11 12 16 8 3 6 8 8 6 8 9 8
12 8 5 17 24 22 22 17 16 21 16 3 15 8 11 11 12 12 15 17 16 1 10 18 16 14 19 13 9 7 7 9 13 11 6 6 12 6 9 14 10 11 6 7 5 4 3 1 9 2 3 4 5 2 5 11 10 8 9 9 10 8 7 5 8 2 1 1 6 1 13 7 4 2 8 6 8 9 3 0 5 9 8 7 7 7 6 9
16 16 9 22 24 28 24 19 10 10 7 15 13 10 12 12 12 17 16 9 12 8 4 9 6 7 13 15 21 19 13 16 17 12 4 9 8 2 4 14 13 12 14 12 9 3 5 3 8 4 5 6 2 2 1 1 1 3 7 8 8 7 3 3 5 4 2 4 2 2 1 13 6 7 6 7 7 6 6 1 8 7 7 7 8 7 7 6
9 8 9 26 25 28 22 16 8 15 10 6 14 6 11 10 14 15 18 12 10 1 8 8 12 12 8 10 10 10 14 5 13 11 3 4 6 3 8 19 16 16 10 4 7 6 6 4 5 2 2 3 2 1 1 1 1 0 2 1 4 9 7 7 4 4 6 1 1 1 5 7 1 1 9 9 7 3 2 3 7 8 8 7 7 7 6 6
4 10 15 16 28 24 22 20 17 16 8 7 10 12 4 7 18 17 15 18 10 8 14 11 8 10 14 8 16 19 17 9 4 7 4 4 6 5 18 19 25 14 15 12 15 9 5 2 10 3 3 3 4 2 2 1 1 1 2 2 2 2 1 2 3 2 3 7 6 4 16 6 1 3 5 5 4 5 5 5 6 8 8 6 7 6 5 5
6 6 9 15 22 23 22 11 9 10 14 17 13 14 16 7 13 22 21 19 8 10 10 9 12 14 5 11 13 8 12 3 9 1 4 3 4 2 17 20 24 16 9 8 9 9 4 6 10 8 8 8 4 7 13 11 7 2 2 7 9 13 10 7 7 7 9 11 13 9 16 1 1 3 3 6 5 6 4 6 3 7 7 9 8 6 5 4
9 11 12 12 17 16 12 2 11 13 16 18 15 10 12 13 9 14 17 9 2 5 3 6 6 12 9 11 8 9 12 6 16 7 11 8 6 2 10 21 20 14 11 17 15 11 4 2 7 10 14 15 17 7 2 12 5 9 8 9 7 4 6 7 4 4 17 4 10 20 15 3 4 4 3 3 5 5 8 1 3 5 7 8 7 6 5 5
4 8 13 16 11 17 17 10 13 15 18 20 15 9 14 16 12 7 15 8 4 5 3 6 10 15 10 18 16 14 12 4 2 13 9 13 2 5 8 14 14 12 18 15 18 7 4 6 12 13 12 6 3 3 7 14 12 10 6 9 7 7 8 11 12 19 6 5 14 11 3 11 9 6 8 10 10 7 6 6 4 6 7 5 5 5 6 6
6 1 5 4 2 18 20 15 13 13 13 18 12 15 20 18 15 13 4 2 6 7 10 1 11 14 24 26 21 16 15 8 9 15 10 5 7 3 9 3 8 7 17 7 14 10 9 10 11 9 9 4 1 8 11 9 10 9 11 10 12 13 12 17 22 15 4 10 22 4 8 10 6 8 7 10 12 11 11 11 7 6 8 5 5 6 7 8
3 3 1 2 6 15 12 13 14 16 21 11 4 13 19 22 21 16 15 7 8 8 12 13 21 21 24 18 17 12 17 11 7 10 14 13 17 15 10 3 2 3 5 7 9 1 6 5 3 9 6 4 0 3 3 10 4 5 10 14 17 16 21 22 20 14 14 18 20 11 11 9 3 5 10 14 11 5 5 5 5 7 9 6 5 6 7 8
8 11 5 4 2 19 23 20 18 16 16 14 14 12 15 20 21 13 6 15 16 17 15 17 25 26 25 24 23 21 28 33 33 23 11 21 11 13 14 10 7 3 2 5 5 2 4 1 5 3 4 4 1 3 3 3 6 6 8 11 17 20 21 20 15 13 13 18 21 13 14 22 7 7 8 6 4 4 6 8 9 9 8 8 7 6 8 9
6 4 10 9 7 9 17 18 18 19 15 11 13 13 14 21 21 18 9 7 22 20 20 26 24 22 21 25 24 23 26 17 13 21 20 23 20 12 14 2 7 10 5 5 4 0 4 1 1 5 5 3 0 5 3 4 2 1 7 14 19 17 13 9 8 8 9 21 14 8 15 20 2 9 3 2 4 7 11 11 9 8 10 7 6 8 9 11
4 4 6 10 8 12 16 12 14 16 15 15 12 14 14 22 17 16 7 4 1 2 8 12 16 15 13 18 26 26 15 12 15 13 19 17 16 15 8 17 23 20 12 12 5 8 6 6 5 5 7 5 1 4 7 5 1 6 15 25 17 8 13 10 14 17 22 18 11 14 22 1 6 4 5 6 11 10 9 9 11 11 8 6 8 9 11 10
Wind_Direction
239 240 235 230 227 220 213 213 223 215 210 202 195 186 180 181 176 177 177 181 172 172 175 172 164 162 161 153 147 149 131 121 123 138 168 218 199 154 145 140 149 157 152 98 96 89 26 31 42 29 47 53 329 355 315 15 344 41 64 111 210 199 143 207 180 192 191 358 239 214 215 144 204 186 185 105 36 71 17 255 304 297 286 247 269 283 141 136
240 241 237 228 230 223 222 224 219 222 211 203 195 187 181 179 179 179 178 178 173 174 170 168 170 167 158 155 149 137 99 92 101 139 201 157 150 150 150 147 155 167 136 99 123 119 111 66 79 65 62 64 326 267 0 321 46 79 124 104 223 178 235 158 206 219 93 303 264 263 267 193 210 136 208 140 255 110 158 263 21 303 308 17 84 126 136 143
241 240 243 234 226 226 217 216 215 224 212 206 199 192 184 180 177 178 180 178 174 173 170 171 171 167 160 149 154 151 94 41 81 212 239 178 156 150 148 145 145 158 156 144 168 141 148 147 121 81 34 79 12 292 12 289 15 203 119 253 255 214 262 229 188 247 218 265 315 191 260 150 246 153 136 200 176 133 195 199 278 252 229 237 137 147 148 151
240 240 241 241 227 229 224 217 220 215 215 203 194 194 186 181 179 176 179 180 176 172 172 168 169 163 159 160 147 126 73 74 219 241 253 166 161 154 141 132 113 108 94 72 115 95 95 90 83 90 90 108 335 65 23 296 50 254 103 185 222 189 333 302 163 246 261 234 272 182 38 188 259 192 150 165 121 245 256 234 185 200 203 178 168 160 160 159
241 239 238 242 236 226 224 219 221 222 216 204 192 192 185 183 180 178 177 181 175 172 170 169 167 165 164 163 155 88 86 71 254 210 196 163 162 154 141 124 114 96 102 113 87 94 103 116 107 68 94 121 41 39 308 313 299 130 210 190 198 354 294 280 332 358 293 298 216 159 147 228 88 50 179 157 182 216 209 221 216 206 171 158 165 170 167 167
241 238 237 237 241 233 227 222 221 217 225 206 196 192 188 182 180 179 179 180 176 172 169 169 168 167 164 160 117 104 129 181 252 294 185 160 159 155 136 124 118 119 112 101 110 119 105 90 117 128 110 100 162 152 230 272 313 261 329 360 204 184 242 276 331 351 127 319 159 150 225 95 175 223 179 181 208 226 289 242 196 185 180 172 160 158 172 174
240 239 235 234 233 238 232 223 225 224 216 220 199 191 188 185 183 177 180 180 176 173 169 170 167 163 163 122 86 119 184 253 26 285 181 159 155 145 136 125 128 120 107 105 122 124 136 136 122 152 121 82 148 156 171 287 345 143 225 9 313 176 243 271 290 296 275 191 235 215 42 176 174 223 137 202 233 74 328 284 183 149 131 144 159 177 176 182
239 236 233 231 226 232 234 226 227 226 214 214 201 198 192 187 181 180 179 179 177 175 167 169 167 161 143 120 122 187 178 239 228 270 164 159 145 143 131 129 138 131 126 141 147 132 138 144 156 116 98 165 196 162 164 191 271 220 253 300 283 275 246 287 284 278 235 232 231 128 187 231 193 201 93 238 228 290 6 70 121 131 140 163 174 180 186 187
238 236 228 229 228 227 233 228 226 227 219 212 202 196 190 187 181 179 180 178 176 175 169 166 168 164 153 110 125 127 220 219 212 158 136 131 126 122 130 118 173 144 145 149 156 152 134 199 124 170 192 170 178 160 358 154 270 181 203 311 289 309 325 317 330 349 273 290 154 167 240 296 197 100 260 248 246 182 96 75 112 136 150 173 186 188 184 189
236 233 228 226 230 225 229 231 227 228 224 217 203 192 187 181 182 179 179 178 177 175 170 169 165 167 142 116 106 200 233 251 177 136 130 131 131 137 144 139 149 120 118 146 102 147 165 184 161 169 109 45 157 181 109 180 203 95 309 309 308 302 352 346 6 297 333 242 189 188 232 221 309 125 260 327 219 132 97 114 127 160 172 182 186 193 196 190
234 233 229 225 227 227 226 230 227 222 222 221 206 193 184 181 179 179 178 180 175 172 169 169 168 159 164 142 169 209 63 112 184 130 137 139 137 144 157 144 152 132 122 126 160 175 153 137 128 119 21 195 130 186 155 211 120 301 284 317 289 317 328 275 325 277 48 295 162 185 212 261 302 89 238 211 225 181 142 151 165 185 190 190 193 194 198 202
238 234 229 226 224 227 227 226 227 221 220 219 215 189 187 179 174 178 177 169 175 170 166 169 172 158 91 166 198 201 328 286 163 140 137 147 148 157 147 154 155 146 137 159 182 176 154 149 140 148 183 122 174 113 244 173 130 258 30 277 329 340 319 343 304 314 125 255 159 164 166 273 202 219 237 173 129 123 140 163 180 192 199 202 202 200 201 207
242 238 232 227 224 224 225 225 225 224 218 218 204 193 179 178 175 171 170 172 168 171 171 168 168 157 139 187 219 255 251 246 145 124 115 89 90 63 81 89 110 156 166 157 178 174 144 146 157 109 131 142 153 177 68 115 153 86 40 103 337 352 299 284 3 190 137 246 156 161 258 251 229 238 220 198 128 114 135 172 198 205 206 203 202 205 214 214
243 240 235 229 224 221 222 223 221 223 220 216 206 189 181 174 173 169 167 169 162 161 176 169 161 162 170 223 294 265 291 187 122 127 147 143 106 73 63 56 77 80 46 99 101 131 126 115 103 104 56 117 174 151 104 13 39 170 216 82 225 40 261 280 130 296 167 176 155 107 227 275 264 253 206 188 152 151 188 202 197 207 208 204 204 210 214 217
243 239 237 231 225 220 220 220 219 220 220 212 209 209 175 176 174 172 167 158 160 166 172 160 178 153 193 240 303 283 130 140 149 164 162 140 122 99 90 76 67 68 75 116 122 108 119 106 106 115 146 309 98 107 61 38 11 137 101 244 340 208 288 300 168 150 185 333 111 132 266 238 257 261 199 200 179 168 201 205 206 205 208 206 204 212 218 221
244 239 236 233 225 220 218 218 215 215 218 207 210 201 197 171 172 170 164 164 162 164 155 163 198 195 159 194 214 134 131 157 182 161 209 134 138 137 157 112 113 90 98 41 106 116 92 104 100 162 105 62 97 107 74 53 291 351 196 299 213 88 271 340 266 183 161 118 331 183 218 314 289 287 320 262 182 186 206 217 214 214 213 209 211 214 218 224
239 237 232 231 226 220 216 216 213 211 211 210 203 197 196 178 164 162 161 159 163 155 162 176 181 182 179 335 95 166 175 191 115 129 132 176 124 136 123 113 110 100 83 94 127 118 64 97 272 84 39 127 158 126 99 229 295 244 15 201 205 182 200 231 304 252 156 145 215 229 223 229 248 256 313 42 163 182 214 226 220 214 212 214 215 218 219 223
237 234 229 225 225 219 214 214 210 207 206 205 195 181 174 172 158 151 153 152 131 154 141 1 151 148 239 223 184 186 141 123 158 143 99 219 132 136 120 101 116 110 104 100 289 118 321 89 335 175 88 128 136 161 186 214 188 189 186 199 249 237 217 246 201 214 122 65 188 226 230 250 259 271 270 223 173 173 224 235 266 233 227 225 223 221 224 225
236 232 229 223 221 218 212 211 208 202 199 200 190 177 162 158 156 158 151 141 146 147 181 183 169 200 181 202 160 108 156 154 122 137 148 135 139 101 75 82 122 127 130 127 216 105 67 82 48 108 188 149 183 182 202 174 153 189 181 209 215 203 223 220 260 305 206 215 224 211 214 242 256 262 265 199 175 184 227 264 285 249 228 229 230 233 230 230
237 230 228 223 218 215 210 208 204 199 192 196 185 175 164 187 172 169 159 156 184 168 208 161 186 124 52 106 142 135 99 122 130 142 127 142 124 119 111 135 130 99 143 157 142 177 147 159 185 196 184 181 191 198 155 180 161 163 173 179 219 232 297 323 290 297 296 26 248 234 255 245 248 252 258 221 145 221 247 247 242 242 232 225 226 227 231 232
240 234 226 221 216 211 207 205 201 197 194 196 183 175 201 167 167 170 155 165 171 110 117 160 161 131 174 142 129 131 127 86 114 154 162 160 130 129 160 141 145 139 174 128 134 168 113 184 205 171 172 171 179 160 143 120 140 158 171 180 233 129 269 273 302 328 303 183 298 37 237 261 265 274 273 84 151 228 217 228 241 243 235 232 229 238 234 235
247 236 223 215 211 207 203 202 198 198 195 200 195 183 198 184 164 153 140 170 190 64 118 132 116 100 66 144 156 143 122 113 124 162 205 153 163 145 192 148 158 158 121 110 87 131 189 207 170 172 156 143 158 152 169 153 143 128 159 163 257 278 233 287 294 313 304 138 253 281 262 259 257 260 265 206 211 238 220 207 224 227 238 232 230 238 246 251
248 233 212 204 204 203 199 198 196 194 197 204 204 186 190 173 98 113 81 113 167 47 140 151 150 124 122 256 168 150 135 160 159 174 178 175 163 172 156 153 161 135 137 155 161 144 193 225 193 151 138 140 153 177 166 181 171 157 114 148 203 265 78 247 273 346 305 182 245 104 299 279 276 261 261 245 201 237 229 211 231 218 225 226 226 222 226 242
237 215 200 195 195 197 194 194 190 194 206 207 209 195 118 127 135 135 119 162 142 139 139 212 108 134 156 157 195 182 156 172 146 166 178 165 159 146 144 162 139 144 172 177 170 178 176 111 160 146 154 151 166 179 183 175 202 277 164 125 138 143 282 150 296 308 278 344 38 337 311 282 244 268 275 259 230 252 256 239 254 249 232 237 252 267 213 225
215 200 190 187 189 189 190 182 193 203 198 209 217 178 129 133 158 156 108 84 91 180 108 95 248 152 164 11 170 152 257 68 332 155 159 159 141 135 168 112 125 166 158 166 146 187 222 246 126 146 156 165 161 180 195 176 208 192 241 153 150 130 350 332 331 353 8 341 325 233 9 279 285 260 249 266 339 244 247 235 244 238 234 237 238 236 236 237
203 192 185 182 182 184 175 187 199 190 199 208 198 156 139 150 150 224 129 144 196 139 144 187 174 192 124 170 103 144 120 99 236 165 154 174 114 138 131 139 139 168 154 152 159 192 194 104 168 162 163 164 177 193 195 168 186 172 238 149 148 155 55 341 339 37 349 296 309 12 221 278 328 293 254 251 253 248 264 230 248 251 248 236 234 236 235 231
200 187 180 178 179 171 172 206 173 186 198 211 175 160 147 146 133 170 120 319 198 180 157 133 167 166 124 177 149 147 158 183 93 133 155 271 151 286 142 154 77 51 113 128 79 244 98 125 133 129 150 171 176 199 198 166 136 212 194 157 153 154 213 268 72 123 236 259 287 182 200 264 287 256 270 317 292 278 278 257 252 258 248 238 235 235 233 234
193 183 178 174 175 172 180 158 178 193 205 168 141 158 133 135 119 69 185 175 229 125 183 153 194 88 102 154 176 166 9 129 125 206 209 224 110 63 112 166 162 160 162 144 188 234 148 174 174 173 172 180 205 160 135 160 149 222 195 160 173 176 148 154 57 55 231 345 281 287 335 281 248 274 313 313 268 267 264 264 253 248 247 242 238 240 235 233
184 178 174 172 171 175 178 189 172 190 194 153 153 149 136 141 148 168 198 191 91 106 86 129 265 115 120 85 60 133 131 159 124 161 199 73 4 146 128 162 119 145 165 172 168 129 314 176 185 168 166 201 134 142 152 157 146 247 103 76 76 83 89 96 92 31 328 3 263 224 191 249 271 264 278 346 236 249 252 265 255 239 236 236 238 242 244 245
177 174 170 168 166 176 188 174 195 188 144 150 148 147 129 136 149 200 176 216 126 148 174 126 164 160 147 147 116 200 139 341 104 127 153 154 147 47 52 122 120 139 173 125 118 197 179 335 154 130 195 179 152 173 159 170 135 121 86 87 73 44 72 28 64 92 3 270 264 146 229 178 294 219 200 201 224 193 234 265 267 263 258 253 246 242 247 250
172 170 168 165 175 177 166 191 188 160 146 153 140 142 129 151 190 183 201 123 89 41 100 163 139 153 158 148 137 184 111 125 138 146 130 153 77 78 131 74 37 65 96 145 297 353 30 44 114 250 135 75 108 76 6 156 143 129 129 120 133 351 24 20 335 43 160 255 246 321 129 158 237 293 256 228 263 227 207 221 243 249 249 251 240 247 252 256
168 167 166 169 169 164 180 184 167 139 155 155 137 155 153 178 40 202 170 185 150 179 152 137 144 152 159 161 145 166 147 137 158 160 158 173 156 156 177 161 158 127 177 191 203 75 28 161 238 313 271 141 142 120 279 145 149 140 122 135 153 180 138 264 118 233 214 233 157 173 152 61 242 240 284 262 246 263 234 231 242 245 262 271 261 253 258 255
164 165 166 170 170 180 183 165 144 152 147 164 144 153 176 180 200 133 123 150 188 149 177 151 160 166 165 150 149 132 140 147 171 169 151 146 137 147 148 129 176 148 175 162 108 131 272 245 192 229 82 238 143 150 159 151 198 173 177 173 154 155 180 215 202 342 317 267 247 110 167 268 289 291 215 236 251 242 240 233 237 247 250 263 267 269 279 271
162 162 168 175 174 181 175 139 147 147 154 159 158 153 181 201 185 52 132 235 130 123 146 158 154 154 158 158 156 152 115 164 162 164 157 151 157 163 202 215 171 118 84 156 169 174 138 239 250 140 255 169 158 170 173 136 163 191 124 154 183 157 162 201 182 202 214 225 203 273 72 237 134 248 239 240 267 296 279 247 249 251 250 261 285 289 276 276
161 164 166 167 175 183 156 152 154 154 154 163 177 174 177 171 121 153 140 128 126 136 127 139 144 147 142 116 159 166 121 139 183 147 168 157 179 179 180 189 191 120 126 127 241 103 189 151 270 234 227 158 171 188 139 108 129 199 177 130 156 218 116 167 205 218 287 276 284 182 209 196 195 268 276 215 261 277 267 270 276 272 258 269 285 274 268 265
157 173 168 171 176 170 151 155 160 157 160 172 182 189 186 161 162 163 158 143 137 137 135 137 150 149 144 131 175 146 159 141 178 154 171 185 179 181 183 156 175 181 166 161 151 127 109 222 272 199 93 163 179 145 181 151 162 188 124 216 205 130 115 92 41 3 85 47 256 151 293 271 299 299 279 334 336 287 281 270 269 273 284 293 264 261 263 259
166 160 176 168 173 159 161 156 165 162 164 180 188 196 169 80 159 143 154 161 157 136 145 150 191 151 147 151 160 169 150 100 162 156 177 168 196 204 183 201 178 173 182 129 110 212 144 208 2 100 159 331 104 154 158 183 145 113 200 216 69 109 108 140 245 359 178 205 264 111 236 290 14 279 338 336 317 286 294 275 270 271 287 285 266 268 262 268
159 169 158 170 161 157 156 160 162 174 169 184 201 184 37 133 196 144 146 137 143 146 147 153 158 162 164 154 179 167 171 152 181 176 172 178 212 193 187 170 180 182 169 221 116 231 127 80 249 345 130 27 15 96 75 345 356 187 197 197 158 229 229 289 128 253 198 252 275 296 291 253 208 241 345 315 276 295 304 293 299 295 281 263 282 282 279 283
156 158 177 165 153 157 159 157 164 169 178 188 193 190 199 68 150 153 155 137 142 147 156 177 140 223 165 175 168 170 168 172 171 180 151 213 207 177 184 171 172 150 162 153 86 150 59 128 311 301 129 191 73 123 194 189 353 64 73 222 263 77 343 137 201 177 121 255 32 284 29 260 174 217 182 254 288 274 262 273 290 294 294 277 274 288 299 305
155 162 168 152 156 154 154 156 164 178 198 191 187 186 141 121 165 159 159 147 162 150 177 159 180 154 182 175 165 157 201 162 170 181 183 184 177 321 175 145 162 172 165 152 134 164 129 106 149 233 279 102 158 196 201 153 163 131 142 210 218 204 269 118 141 158 171 189 199 277 310 269 249 200 176 209 211 237 262 274 255 282 285 286 284 288 295 291
153 158 105 152 156 152 147 159 172 193 188 170 178 152 157 154 153 163 161 159 139 285 156 166 164 177 161 142 168 176 149 147 172 177 176 153 177 163 204 173 141 148 118 145 133 177 94 91 142 165 96 200 236 228 165 172 180 177 172 199 189 172 208 186 243 39 105 193 247 156 265 268 259 152 221 207 226 233 267 160 265 272 279 283 293 292 280 292
149 175 164 160 154 152 156 167 192 164 162 184 180 154 152 132 140 160 159 180 147 138 81 149 151 152 164 168 165 173 163 170 176 170 193 162 186 87 173 120 141 145 148 175 166 228 143 121 100 144 198 180 200 24 295 310 65 182 166 214 185 196 148 186 208 264 355 250 117 187 267 283 159 193 208 222 236 226 248 287 278 280 282 287 288 281 285 266
147 154 121 156 159 157 160 180 157 170 170 145 123 112 135 140 150 166 156 169 160 143 126 159 167 141 194 160 153 149 157 149 172 184 118 127 162 176 152 139 134 153 134 132 122 204 107 99 87 328 313 318 324 298 324 324 134 304 305 59 143 195 191 194 169 187 183 237 229 283 258 258 184 142 202 215 230 256 300 228 252 284 289 292 283 287 296 305
112 136 149 166 162 167 170 182 169 166 127 124 131 139 118 144 153 160 164 171 161 167 161 157 164 187 160 172 160 167 165 125 205 119 114 162 149 178 146 147 153 164 168 185 172 191 133 270 116 80 24 347 346 337 335 341 58 185 165 204 151 101 105 165 99 90 247 206 164 152 248 247 241 315 316 327 346 297 292 271 229 261 281 282 280 282 284 290
120 86 132 162 169 173 185 168 159 144 140 146 143 141 135 149 178 164 163 172 172 166 152 176 169 148 134 152 164 153 170 139 140 340 90 112 124 146 160 158 167 170 181 163 143 163 145 180 142 141 152 170 199 206 213 207 190 222 219 175 190 181 168 154 206 200 234 215 174 216 247 347 269 345 345 326 323 299 219 246 262 225 257 280 294 300 307 306
168 143 156 158 170 175 195 170 162 152 141 141 135 161 136 132 167 178 157 152 75 118 74 113 99 113 127 131 132 154 176 135 153 178 149 163 145 225 184 169 172 177 159 151 145 154 156 176 183 183 175 189 203 196 80 112 104 192 212 181 207 211 200 198 194 187 225 210 185 230 228 304 314 316 318 302 332 298 301 216 241 245 245 242 253 276 290 298
133 165 164 165 136 185 184 160 170 162 158 152 147 160 152 151 149 152 171 154 215 121 110 123 148 141 164 147 159 170 175 76 57 138 163 149 117 130 163 174 175 170 156 153 161 127 105 168 206 197 206 191 116 156 184 141 181 203 137 203 192 183 188 195 198 226 111 94 251 235 173 243 236 290 303 315 307 293 287 292 268 284 274 279 295 300 312 303
171 158 149 150 139 164 169 183 178 164 150 161 153 154 156 152 159 149 139 341 144 160 127 65 165 169 164 169 161 164 166 155 148 167 152 143 112 103 130 262 175 184 161 164 172 169 166 196 209 180 212 141 183 147 164 157 179 169 181 183 187 202 195 205 223 220 130 204 243 200 182 226 216 200 226 242 252 249 250 271 291 285 291 304 330 336 315 295
110 95 105 47 119 154 173 131 163 173 158 150 99 160 155 155 162 165 158 150 154 185 167 159 180 170 175 166 158 159 166 147 203 172 165 174 161 148 149 86 269 34 171 151 178 16 142 218 150 181 185 131 181 143 179 155 148 159 187 192 201 198 211 215 225 222 221 241 250 246 257 244 188 215 212 229 238 263 284 295 291 297 290 302 294 286 280 280
164 151 170 94 2 158 152 159 166 165 162 156 145 179 157 160 160 158 163 159 168 184 175 179 180 175 172 169 173 176 181 189 183 172 174 142 142 160 164 162 128 33 69 142 154 295 133 238 92 89 121 214 96 72 71 84 148 187 226 215 211 211 216 218 222 228 237 256 255 270 281 272 230 197 233 271 304 304 291 288 275 273 285 285 276 269 276 278
129 151 143 129 123 165 150 155 163 167 156 174 162 165 166 169 168 164 161 191 179 174 181 187 177 170 172 174 184 194 194 186 138 160 153 153 161 179 140 249 140 133 136 136 161 196 132 182 34 106 143 274 338 121 84 72 45 214 240 230 224 217 222 224 227 221 222 240 243 253 258 254 135 203 222 278 307 272 260 266 271 271 266 280 287 275 266 267
96 43 94 136 126 167 152 155 156 158 180 177 158 165 165 176 163 154 137 2 70 207 198 170 157 150 178 181 195 200 173 144 149 137 157 163 153 160 162 156 154 158 162 171 158 140 147 125 143 142 147 219 269 131 139 93 58 300 254 233 217 206 213 208 224 218 217 225 231 230 244 240 209 169 171 215 225 238 246 249 260 261 261 247 245 252 257 254